Regional Weather Roundup
Issued by NWS

Home | Current Version | Previous Version | Graphics & Text | Print | Product List | Glossary On
Versions: 1 2 3 4 5 6 7 8 9 10 11 12 13 14 15 16 17 18 19 20 21 22 23 24 25 26 27 28 29 30 31 32 33 34 35 36 37 38 39 40 41 42 43 44 45 46 47 48 49
000
ASUS43 KDMX 010507
RWRIA

WEATHER ROUNDUP FOR IOWA
NATIONAL WEATHER SERVICE DES MOINES IA
1200 AM CDT WED OCT 01 2014

NOTE: "FAIR" INDICATES FEW OR NO CLOUDS BELOW 12,000 FEET WITH NO
SIGNIFICANT WEATHER AND/OR OBSTRUCTIONS TO VISIBILITY.

* - THESE STATIONS ARE NOT NWS STATIONS...THUS NOT UNDER NWS
QUALITY CONTROL.  THEY ALSO DO NOT REPORT WEATHER SUCH
AS PRECIPITATION OR FOG.

IAZ001>003-012>014-020>022-031>034-043>046-010600-
   NORTHWEST IOWA

CITY           SKY/WX    TMP DP  RH WIND       PRES   REMARKS
CARROLL *      CLOUDY    59  59 100 E12       29.81F
CHEROKEE *     MOCLDY    61  61 100 SE7       29.79F
DENISON *      MOCLDY    63  63 100 SE8G18    29.78S
LE MARS *        N/A     61  61 100 SE8       29.77F
ORANGE CITY *  CLOUDY    63  59  88 SE7G16    29.78S FOG
SHELDON *      CLOUDY    61  61 100 SE13G22   29.77F
SIOUX CITY     PTCLDY    62  60  93 SE8       29.76F
SPENCER        CLOUDY    60  58  92 SE13      29.81F
STORM LAKE *   PTCLDY    61  59  94 SE16      29.81F FOG
$$

IAZ055>058-069>071-079>083-090>094-010600-
   SOUTHWEST IOWA

CITY           SKY/WX    TMP DP  RH WIND       PRES   REMARKS
ATLANTIC *     LGT RAIN  63  61  94 E7        29.82S
AUDUBON *      RAIN      61  55  82 SE12G18   29.82F
CLARINDA *     MOCLDY    66  66 100 VRB6      29.80F FOG
COUNCIL BLFS * LGT RAIN  64  64 100 SE13      29.79S
CRESTON *      MOCLDY    64  63  94 SE6       29.83S
HARLAN  *      LGT RAIN  63  63 100 SE14G20   29.82R
LAMONI         CLOUDY    66  61  84 E7        29.82
RED OAK *      LGT RAIN  66  64  94 SE5       29.81S
SHENANDOAH *   RAIN      66  64  94 NE12      29.77F
$$

IAZ047>049-059>061-072>074-084-010600-
   CENTRAL IOWA

CITY           SKY/WX    TMP DP  RH WIND       PRES   REMARKS
AMES           CLOUDY    58  56  93 E7        29.87S
ANKENY *       PTCLDY    61  55  82 E8        29.85S
CHARITON *     CLOUDY    64  59  82 SE12G17   29.84F
DES MOINES     CLOUDY    65  56  72 E9        29.84S
GRINNELL*      MOCLDY    59  52  77 E13       29.88F
KNOXVILLE *    CLOUDY    63  55  77 SE13G18   29.84F
MARSHALLTOWN   CLOUDY    57  51  80 E9        29.89F
PELLA *        MOCLDY    61  55  80 SE10      29.88S
PERRY *        CLOUDY    59  59 100 E7        29.84F
$$

IAZ004>006-015-016-023>025-035-036-010600-
   NORTH CENTRAL IOWA

CITY           SKY/WX    TMP DP  RH WIND       PRES   REMARKS
ALGONA *       MOCLDY    59  57  94 S12       29.84F
CLARION *      CLOUDY    57  57 100 SE18G29   29.85S
ESTHERVILLE    CLOUDY    58  56  93 SE15      29.82F
FORT DODGE *   CLOUDY    59  55  88 SE14G22   29.85R
MASON CITY     LGT RAIN  54  51  90 SE23G32   29.87F
FOREST CITY *  MOCLDY    55  54  94 SE12G17   29.85F
IOWA FALLS *   CLOUDY    55  54  94 E8        29.90F
$$

IAZ007>011-017>019-026>030-037>042-050>054-066-010600-
   NORTHEAST IOWA

CITY           SKY/WX    TMP DP  RH WIND       PRES   REMARKS
CHARLES CITY * CLOUDY    52  46  82 SE13      29.93S
CLINTON *      CLEAR     52  45  76 E13       30.00S
DECORAH *      CLOUDY    48  45  87 SE6       29.95R
MONTICELLO *   CLEAR     50  46  87 E9        29.95S
OELWEIN *      PTCLDY    50  45  81 SE12G20   29.93F
WATERLOO       CLOUDY    53  45  74 VRB5      29.93R
$$

IAZ064-065-067-068-078-010600-
   EAST CENTRAL IOWA

CITY           SKY/WX    TMP DP  RH WIND       PRES   REMARKS
IOWA CITY      PTCLDY    54  49  83 E8        29.94S
MT. PLEASANT * CLEAR     57  50  77 E9        29.92R
MUSCATINE *    CLEAR     57  48  72 E8        29.94F
$$

IAZ062-063-075>077-085>089-095>099-010600-
   SOUTHEAST IOWA

CITY           SKY/WX    TMP DP  RH WIND       PRES   REMARKS
BURLINGTON     CLEAR     57  51  80 E8        29.92S
FAIRFIELD *    PTCLDY    57  52  82 E10       29.90F
FORT MADISON * CLEAR     61  52  72 E8        29.92S HAZE
KEOKUK *       CLEAR     59  54  82 E15       29.90R
OSKALOOSA *    MOCLDY    59  54  82 E9        29.89S
CENTERVILLE *    N/A     63  59  88 E9        29.88S
OTTUMWA        MOCLDY    59  54  83 E9        29.88F
WASHINGTON *   CLEAR     57  52  82 E14       29.91F
$$

ABBREVIATIONS USED IN REMARKS
   TC - TEMPERATURES IN CELSIUS
  WCI - WIND CHILL INDEX
   HX - HEAT INDEX
  VSB - VISIBILITY
$$



USA.gov is the U.S. government's official web portal to all federal, state and local government web resources and services.